VK2RZ Weather Reports


time (UTC)temp
F
wind
direction
speed
knots
gust
knots
rain 1hr
in
rain 24hr
in
rain mn
in
humidity
%
barometer
mb
20260905095734 72 90 1.7 5.2 0.00 0.00 0.00 5 1008.7
20260905094734 72 65 1.7 8.7 0.00 0.00 0.00 5 1008.6
20260905093733 72 85 1.7 4.3 0.00 0.00 0.00 5 1008.6
20260905092731 71 207 0.9 5.2 0.00 0.00 0.00 5 1008.7
20260905091731 71 139 1.7 3.5 0.00 0.00 0.00 5 1008.7
20260905090731 71 122 2.6 4.3 0.00 0.00 0.00 5 1008.7
20260905085731 71 111 7.0 7.8 0.00 0.00 0.00 5 1008.7
20260905084731 71 141 5.2 5.2 0.00 0.00 0.00 5 1008.7
20260905083731 71 101 2.6 5.2 0.00 0.00 0.00 5 1008.9
20260905082731 71 118 4.3 7.0 0.00 0.00 0.00 5 1009.3
20260905081731 71 92 3.5 5.2 0.00 0.00 0.00 6 1009.6
20260905080731 71 222 0.9 4.3 0.00 0.00 0.00 6 1009.9
20260905075731 71 254 2.6 10.4 0.00 0.00 0.00 6 1010.5
20260905074731 71 262 6.1 9.6 0.00 0.00 0.00 6 1010.5
20260905073731 70 231 2.6 13.9 0.00 0.00 0.00 6 1010.6
20260905072731 70 222 11.3 12.2 0.00 0.00 0.00 6 1010.6
20260905071731 71 240 11.3 15.6 0.00 0.00 0.00 6 1010.5
20260905070731 73 260 7.0 20.9 0.00 0.00 0.00 5 1010.3
20260905065731 74 233 4.3 14.8 0.00 0.00 0.00 5 1009.3
20260905064731 74 231 8.7 15.6 0.00 0.00 0.00 5 1009.7
20260905063731 74 247 4.3 20.9 0.00 0.00 0.00 5 1009.5
20260905062731 84 254 25.2 33.9 0.00 0.00 0.00 3 1008.7
20260905061731 85 175 7.0 11.3 0.00 0.00 0.00 3 1007.3
20260905060731 85 212 3.5 7.0 0.00 0.00 0.00 3 1007.3
20260905055731 86 256 2.6 7.8 0.00 0.00 0.00 3 1007.0
20260905054731 86 216 3.5 10.4 0.00 0.00 0.00 3 1006.5
20260905053731 86 282 7.0 10.4 0.00 0.00 0.00 3 1006.2
20260905052731 87 193 1.7 7.8 0.00 0.00 0.00 3 1006.1
20260905051731 87 291 2.6 14.8 0.00 0.00 0.00 2 1006.1
20260905050731 87 245 3.5 10.4 0.00 0.00 0.00 2 1006.0
20260905045731 88 262 12.2 12.2 0.00 0.00 0.00 2 1006.1
20260905044731 89 219 3.5 17.4 0.00 0.00 0.00 2 1005.9
20260905043731 89 157 1.7 12.2 0.00 0.00 0.00 2 1006.2
20260905042731 89 214 0.9 13.9 0.00 0.00 0.00 3 1006.4
20260905041731 88 93 5.2 10.4 0.00 0.00 0.00 3 1006.4
20260905040731 87 23 5.2 6.1 0.00 0.00 0.00 3 1006.4
20260905035731 86 27 1.7 5.2 0.00 0.00 0.00 3 1006.8
20260905034731 83 74 2.6 5.2 0.00 0.00 0.00 4 1006.9
20260905033731 79 69 0.9 9.6 0.00 0.00 0.00 5 1007.0
20260905032731 81 57 4.3 10.4 0.00 0.00 0.00 4 1007.4
20260905031731 84 78 3.5 6.1 0.00 0.00 0.00 3 1007.9
20260905030731 83 52 1.7 6.1 0.00 0.00 0.00 3 1008.2
20260905025731 83 72 3.5 12.2 0.00 0.00 0.00 3 1008.5
20260905024731 83 58 2.6 10.4 0.00 0.00 0.00 3 1008.9
20260905023731 82 17 6.1 6.1 0.00 0.00 0.00 3 1009.3
20260905022731 82 62 5.2 8.7 0.00 0.00 0.00 4 1009.9
20260905021731 80 81 1.7 9.6 0.00 0.00 0.00 4 1010.1
20260905020731 81 66 1.7 6.1 0.00 0.00 0.00 4 1010.5
20260905015731 81 91 3.5 6.1 0.00 0.00 0.00 4 1010.7
20260905014731 80 132 7.0 7.8 0.00 0.00 0.00 4 1010.9
20260905013731 79 38 0.9 8.7 0.00 0.00 0.00 4 1011.4
20260905012731 78 60 2.6 7.8 0.00 0.00 0.00 4 1011.5
20260905011731 78 89 1.7 7.0 0.00 0.00 0.00 4 1011.7
20260905010731 77 45 5.2 7.0 0.00 0.00 0.00 4 1011.9
20260905005731 77 31 1.7 7.0 0.00 0.00 0.00 4 1012.2
20260905004731 76 6 1.7 7.8 0.00 0.00 0.00 4 1012.5
20260905003731 76 73 3.5 6.1 0.00 0.00 0.00 4 1012.8
20260905002731 73 133 1.7 4.3 0.00 0.00 0.00 4 1013.1
20260905001731 75 97 1.7 7.0 0.00 0.00 0.00 4 1013.2
20260905000731 75 272 1.7 4.3 0.00 0.00 0.00 4 1013.4
20260904235730 75 129 1.7 6.1 0.00 0.00 0.00 4 1013.7
20260904234730 74 143 3.5 5.2 0.00 0.00 0.00 4 1014.0
20260904233730 73 278 1.7 9.6 0.00 0.00 0.00 4 1014.3
20260904232730 70 237 2.6 5.2 0.00 0.00 0.00 5 1014.5
20260904231730 70 144 0.9 7.0 0.00 0.00 0.00 5 1014.4
20260904230730 70 123 1.7 6.1 0.00 0.00 0.00 5 1014.6
20260904225730 71 121 3.5 4.3 0.00 0.00 0.00 4 1014.7
20260904224730 71 168 2.6 3.5 0.00 0.00 0.00 5 1015.1
20260904223730 70 175 3.5 4.3 0.00 0.00 0.00 5 1015.1
20260904222730 69 243 0.9 7.8 0.00 0.00 0.00 5 1015.4
20260904221730 69 210 1.7 3.5 0.00 0.00 0.00 5 1015.7
20260904220730 68 253 3.5 6.1 0.00 0.00 0.00 5 1015.7
20260904215730 67 198 0.9 4.3 0.00 0.00 0.00 5 1015.7
20260904214730 66 0 0.0 1.7 0.00 0.00 0.00 5 1015.9
20260904213730 65 0 0.0 2.6 0.00 0.00 0.00 5 1015.9
20260904212730 64 228 2.6 3.5 0.00 0.00 0.00 5 1016.0
20260904211730 63 229 2.6 6.1 0.00 0.00 0.00 5 1015.9
20260904210730 63 254 4.3 4.3 0.00 0.00 0.00 6 1015.8
20260904205730 62 251 4.3 8.7 0.00 0.00 0.00 6 1016.0
20260904204730 62 239 1.7 7.0 0.00 0.00 0.00 6 1016.1
20260904203730 61 217 3.5 9.6 0.00 0.00 0.00 6 1016.0
20260904202730 61 218 3.5 4.3 0.00 0.00 0.00 6 1016.0
20260904201730 60 217 0.9 3.5 0.00 0.00 0.00 6 1016.0
20260904200730 60 219 1.7 3.5 0.00 0.00 0.00 6 1015.9
20260904195730 61 235 1.7 3.5 0.00 0.00 0.00 6 1016.0
20260904194730 60 232 1.7 4.3 0.00 0.00 0.00 6 1015.9
20260904193730 60 226 2.6 5.2 0.00 0.00 0.00 6 1015.6
20260904192730 60 250 0.9 4.3 0.00 0.00 0.00 6 1015.6
20260904191730 60 249 2.6 5.2 0.00 0.00 0.00 6 1015.7
20260904190730 60 241 1.7 3.5 0.00 0.00 0.00 6 1015.6
20260904185730 59 242 0.9 2.6 0.00 0.00 0.00 6 1015.8
20260904184730 59 233 0.9 2.6 0.00 0.00 0.00 6 1015.9
20260904183729 60 0 0.0 1.7 0.00 0.00 0.00 6 1016.0
20260904182729 60 234 1.7 3.5 0.00 0.00 0.00 6 1016.0
20260904181729 60 214 2.6 2.6 0.00 0.00 0.00 6 1016.1
20260904180729 60 210 0.9 4.3 0.00 0.00 0.00 6 1016.0
20260904175729 60 220 3.5 4.3 0.00 0.00 0.00 6 1015.9
20260904174729 59 220 1.7 5.2 0.00 0.00 0.00 7 1015.9
20260904173729 59 247 2.6 2.6 0.00 0.00 0.00 6 1015.9
20260904172729 59 247 0.9 1.7 0.00 0.00 0.00 6 1015.9
20260904171729 59 0 0.0 0.0 0.00 0.00 0.00 6 1016.1
20260904170729 59 0 0.0 0.9 0.00 0.00 0.00 6 1016.2
20260904165729 59 0 0.0 0.0 0.00 0.00 0.00 6 1016.3
20260904164729 59 0 0.0 0.0 0.00 0.00 0.00 6 1016.4
20260904163729 59 0 0.0 0.0 0.00 0.00 0.00 6 1016.5
20260904162729 59 0 0.0 1.7 0.00 0.00 0.00 6 1016.8
20260904161729 60 249 4.3 5.2 0.00 0.00 0.00 6 1017.0
20260904160728 58 279 2.6 3.5 0.00 0.00 0.00 7 1017.2
20260904155728 58 0 0.0 0.0 0.00 0.00 0.00 7 1017.2
20260904154728 59 281 1.7 2.6 0.00 0.00 0.00 7 1017.3
20260904153728 58 279 1.7 1.7 0.00 0.00 0.00 7 1017.5
20260904152728 57 279 0.9 0.9 0.00 0.00 0.00 7 1017.7
20260904151728 58 0 0.0 0.0 0.00 0.00 0.00 7 1017.6
20260904150728 58 279 0.9 1.7 0.00 0.00 0.00 7 1017.8
20260904145728 59 279 0.9 2.6 0.00 0.00 0.00 7 1018.0
20260904144728 60 279 0.9 5.2 0.00 0.00 0.00 7 1018.1
20260904143728 60 298 1.7 3.5 0.00 0.00 0.00 7 1018.0
20260904142728 61 299 3.5 7.0 0.00 0.00 0.00 6 1018.1
20260904141728 61 307 4.3 4.3 0.00 0.00 0.00 6 1018.3
20260904140728 61 301 2.6 7.0 0.00 0.00 0.00 6 1018.3
20260904135728 61 293 2.6 5.2 0.00 0.00 0.00 6 1018.2
20260904134728 61 294 2.6 3.5 0.00 0.00 0.00 6 1018.3
20260904133728 60 292 0.9 2.6 0.00 0.00 0.00 7 1018.3
20260904132728 59 0 0.0 0.0 0.00 0.00 0.00 7 1018.5
20260904131728 58 0 0.0 0.9 0.00 0.00 0.00 7 1018.5
20260904130728 59 291 1.7 3.5 0.00 0.00 0.00 7 1018.6
20260904125728 58 292 2.6 7.8 0.00 0.00 0.00 8 1018.7
20260904124728 58 0 0.0 0.9 0.00 0.00 0.00 8 1018.8
20260904123728 58 0 0.0 1.7 0.00 0.00 0.00 8 1019.1
20260904122728 58 0 0.0 0.0 0.00 0.00 0.00 8 1019.2
20260904121728 58 316 2.6 2.6 0.00 0.00 0.00 8 1019.3
20260904120728 59 0 0.0 0.9 0.00 0.00 0.00 8 1019.4
20260904115728 59 0 0.0 1.7 0.00 0.00 0.00 8 1019.3
20260904114728 59 345 0.9 1.7 0.00 0.00 0.00 8 1019.3
20260904113728 60 345 1.7 3.5 0.00 0.00 0.00 8 1019.4
20260904112728 60 0 0.0 0.0 0.00 0.00 0.00 7 1019.5
20260904111728 60 345 0.9 3.5 0.00 0.00 0.00 7 1019.5
20260904110728 60 345 0.9 4.3 0.00 0.00 0.00 7 1019.5
20260904105728 61 0 0.0 3.5 0.00 0.00 0.00 7 1019.2
20260904104728 61 346 0.9 3.5 0.00 0.00 0.00 7 1019.3
20260904103728 61 346 0.9 3.5 0.00 0.00 0.00 7 1019.2
20260904102728 61 349 1.7 3.5 0.00 0.00 0.00 7 1019.0
20260904101728 61 349 0.9 4.3 0.00 0.00 0.00 7 1018.9
20260904100728 61 346 0.9 3.5 0.00 0.00 0.00 7 1019.0